This is the latest recevied weather packets stored in our database for station/object WA4TPR. If no packets are shown the sender has not sent any weather packets the latest 10 day(s).
| Time | Temp. | Humidity | Pressure | Rain* | Wind** | Luminosity | Snow |
|---|---|---|---|---|---|---|---|
| 1778235807 | 18.89° C | 99% | 1018.6 hPa | 0 mm | - | 0 W/m² | - |
| 1778235504 | 18.89° C | 99% | 1018.5 hPa | 0 mm | - | 0 W/m² | - |
| 1778235202 | 18.89° C | 99% | 1018.6 hPa | 0 mm | - | 0 W/m² | - |
| 1778234899 | 18.33° C | 99% | 1018.4 hPa | 0 mm | - | 0 W/m² | - |
| 1778234598 | 18.89° C | 99% | 1018.2 hPa | 0 mm | - | 0 W/m² | - |
| 1778234293 | 18.89° C | 99% | 1018.2 hPa | 0 mm | - | 0 W/m² | - |
| 1778233991 | 18.89° C | 99% | 1018.4 hPa | 0 mm | - | 0 W/m² | - |
| 1778233687 | 19.44° C | 99% | 1018.2 hPa | 0 mm | - | 0 W/m² | - |
| 1778233385 | 19.44° C | 99% | 1018.2 hPa | 0 mm | - | 0 W/m² | - |
| 1778233081 | 18.89° C | 99% | 1018.2 hPa | 0 mm | - | 0 W/m² | - |
| 1778232779 | 19.44° C | 99% | 1018.2 hPa | 0 mm | - | 0 W/m² | - |
| 1778232476 | 19.44° C | 99% | 1018.1 hPa | 0 mm | - | 0 W/m² | - |
| 1778232174 | 19.44° C | 99% | 1018 hPa | 0 mm | - | 0 W/m² | - |
| 1778231872 | 19.44° C | 99% | 1018.2 hPa | 0 mm | - | 0 W/m² | - |
| 1778231568 | 19.44° C | 99% | 1018 hPa | 0 mm | - | 0 W/m² | - |
| 1778231266 | 19.44° C | 99% | 1018.3 hPa | 0 mm | - | 0 W/m² | - |
| 1778230964 | 19.44° C | 99% | 1018.2 hPa | 0 mm | - | 0 W/m² | - |
| 1778230659 | 19.44° C | 99% | 1018.1 hPa | 0 mm | - | 0 W/m² | - |
| 1778230357 | 20° C | 99% | 1018 hPa | 0 mm | - | 0 W/m² | - |
| 1778230052 | 20° C | 99% | 1018 hPa | 0 mm | - | 0 W/m² | - |
| 1778229751 | 20° C | 99% | 1018 hPa | 0 mm | - | 0 W/m² | - |
| 1778229448 | 20° C | 99% | 1018.1 hPa | 0 mm | - | 0 W/m² | - |
| 1778229145 | 20° C | 99% | 1017.9 hPa | 0 mm | - | 0 W/m² | - |
| 1778228840 | 20° C | 99% | 1017.9 hPa | 0 mm | - | 0 W/m² | - |
| 1778228538 | 20° C | 98% | 1018 hPa | 0 mm | - | 0 W/m² | - |
* Rain latest hour (hover to see other rain measurements)
** Current wind speed in m/s (hover to see current wind gust speed)